CVA152 MDSD-MDLR

Flight info

Callsign CVA152
Flight time 0h 22m
Altitude 3000
Route PIVAR DCT EMUPO DCT LR450
Aircraft C172/L-SFG/C

Departure

Time 2026-05-07 22:22
Airport Las Américas International Airport (MDSD)

Arrival

Time 2026-05-07 22:44
Airport Casa De Campo International Airport (MDLR)
Time Latitude Longitude Altitude Speed Heading
2026-05-07 22:19 18.44372 -69.67415 51 ft 0 kts 161°
2026-05-07 22:21 18.44158 -69.67334 53 ft 61 kts 160°
2026-05-07 22:22 18.43667 -69.67107 199 ft 79 kts 146°
2026-05-07 22:22 18.43297 -69.66707 441 ft 82 kts 125°
2026-05-07 22:22 18.42953 -69.66205 671 ft 83 kts 110°
2026-05-07 22:22 18.43251 -69.65680 687 ft 104 kts 16°
2026-05-07 22:23 18.43997 -69.65683 688 ft 115 kts 11°
2026-05-07 22:23 18.44621 -69.65158 684 ft 120 kts 58°
2026-05-07 22:23 18.44751 -69.64300 683 ft 122 kts 95°
2026-05-07 22:23 18.44748 -69.63402 664 ft 123 kts 90°
2026-05-07 22:24 18.44758 -69.62505 665 ft 122 kts 90°
2026-05-07 22:24 18.44770 -69.61653 848 ft 110 kts 90°
2026-05-07 22:24 18.44781 -69.60868 1050 ft 107 kts 90°
2026-05-07 22:24 18.44788 -69.60087 1268 ft 106 kts 90°
2026-05-07 22:25 18.44797 -69.59316 1489 ft 105 kts 90°
2026-05-07 22:25 18.44805 -69.58552 1711 ft 103 kts 90°
2026-05-07 22:25 18.44813 -69.57799 1932 ft 102 kts 90°
2026-05-07 22:25 18.44821 -69.57065 2152 ft 101 kts 90°
2026-05-07 22:26 18.44829 -69.56330 2373 ft 100 kts 90°
2026-05-07 22:26 18.44837 -69.55602 2596 ft 99 kts 90°
2026-05-07 22:26 18.44845 -69.54879 2817 ft 98 kts 90°
2026-05-07 22:26 18.44853 -69.54158 2998 ft 103 kts 90°
2026-05-07 22:27 18.44858 -69.53346 3013 ft 117 kts 90°
2026-05-07 22:27 18.44866 -69.52461 3011 ft 124 kts 90°
2026-05-07 22:27 18.44874 -69.51544 3010 ft 127 kts 90°
2026-05-07 22:27 18.44884 -69.50610 3009 ft 128 kts 90°
2026-05-07 22:28 18.44893 -69.49671 3009 ft 128 kts 90°
2026-05-07 22:28 18.44903 -69.48729 3008 ft 128 kts 90°
2026-05-07 22:28 18.44913 -69.47800 3008 ft 128 kts 90°
2026-05-07 22:28 18.44921 -69.46860 3007 ft 129 kts 90°
2026-05-07 22:29 18.44932 -69.45917 3007 ft 128 kts 90°
2026-05-07 22:29 18.44941 -69.44976 3006 ft 128 kts 90°
2026-05-07 22:29 18.44952 -69.44039 3006 ft 128 kts 90°
2026-05-07 22:29 18.44961 -69.43096 3005 ft 128 kts 90°
2026-05-07 22:30 18.44970 -69.42157 3005 ft 128 kts 90°
2026-05-07 22:30 18.44979 -69.41217 3004 ft 128 kts 90°
2026-05-07 22:30 18.44989 -69.40278 3004 ft 128 kts 90°
2026-05-07 22:30 18.44998 -69.39350 3005 ft 128 kts 90°
2026-05-07 22:31 18.45008 -69.38409 3005 ft 128 kts 90°
2026-05-07 22:31 18.45017 -69.37470 3005 ft 128 kts 90°
2026-05-07 22:31 18.45026 -69.36527 3005 ft 129 kts 90°
2026-05-07 22:31 18.45035 -69.35583 3004 ft 129 kts 90°
2026-05-07 22:32 18.45044 -69.34642 3005 ft 129 kts 90°
2026-05-07 22:32 18.45053 -69.33698 3004 ft 129 kts 90°
2026-05-07 22:32 18.45063 -69.32757 3004 ft 128 kts 90°
2026-05-07 22:32 18.45072 -69.31818 3003 ft 129 kts 90°
2026-05-07 22:33 18.45081 -69.30876 3003 ft 128 kts 90°
2026-05-07 22:33 18.45089 -69.29936 3003 ft 129 kts 90°
2026-05-07 22:33 18.45098 -69.28993 3003 ft 129 kts 90°
2026-05-07 22:33 18.45107 -69.28050 3003 ft 129 kts 90°
2026-05-07 22:34 18.45116 -69.27106 3002 ft 129 kts 90°
2026-05-07 22:34 18.45124 -69.26166 3002 ft 129 kts 90°
2026-05-07 22:34 18.45133 -69.25224 3001 ft 128 kts 90°
2026-05-07 22:34 18.45142 -69.24285 3002 ft 129 kts 90°
2026-05-07 22:35 18.45150 -69.23352 3001 ft 129 kts 90°
2026-05-07 22:35 18.45159 -69.22410 3001 ft 128 kts 90°
2026-05-07 22:35 18.45168 -69.21469 3000 ft 128 kts 90°
2026-05-07 22:35 18.45176 -69.20528 3000 ft 128 kts 90°
2026-05-07 22:36 18.45184 -69.19587 3000 ft 128 kts 90°
2026-05-07 22:36 18.45193 -69.18648 3001 ft 129 kts 90°
2026-05-07 22:36 18.45201 -69.17705 3001 ft 129 kts 90°
2026-05-07 22:36 18.45209 -69.16760 3000 ft 129 kts 90°
2026-05-07 22:37 18.45218 -69.15816 3000 ft 129 kts 90°
2026-05-07 22:37 18.45225 -69.14872 2999 ft 129 kts 90°
2026-05-07 22:37 18.45234 -69.13933 2999 ft 129 kts 90°
2026-05-07 22:37 18.45242 -69.12989 2998 ft 129 kts 90°
2026-05-07 22:38 18.45250 -69.12053 2999 ft 129 kts 90°
2026-05-07 22:38 18.45258 -69.11109 2998 ft 129 kts 90°
2026-05-07 22:38 18.45266 -69.10168 2997 ft 128 kts 90°
2026-05-07 22:38 18.45274 -69.09228 2997 ft 128 kts 90°
2026-05-07 22:39 18.45281 -69.08298 2997 ft 128 kts 90°
2026-05-07 22:39 18.45289 -69.07357 2997 ft 128 kts 90°
2026-05-07 22:39 18.45297 -69.06416 2996 ft 128 kts 90°
2026-05-07 22:39 18.45305 -69.05478 2996 ft 128 kts 90°
2026-05-07 22:40 18.45313 -69.04537 2996 ft 128 kts 90°
2026-05-07 22:40 18.45320 -69.03596 2996 ft 128 kts 90°
2026-05-07 22:40 18.45328 -69.02658 2995 ft 128 kts 90°
2026-05-07 22:40 18.45335 -69.01717 2995 ft 128 kts 90°
2026-05-07 22:41 18.45343 -69.00776 2995 ft 128 kts 90°
2026-05-07 22:41 18.45350 -68.99836 2994 ft 128 kts 90°
2026-05-07 22:41 18.45357 -68.98899 2995 ft 128 kts 90°
2026-05-07 22:41 18.45365 -68.97958 2995 ft 128 kts 90°
2026-05-07 22:42 18.45372 -68.97015 2994 ft 129 kts 90°
2026-05-07 22:42 18.45380 -68.96073 2994 ft 128 kts 90°
2026-05-07 22:42 18.45387 -68.95134 2994 ft 129 kts 90°
2026-05-07 22:42 18.45393 -68.94201 2994 ft 129 kts 90°
2026-05-07 22:43 18.45400 -68.93262 2993 ft 128 kts 90°
2026-05-07 22:43 18.45408 -68.92320 2993 ft 128 kts 90°
2026-05-07 22:43 18.45629 -68.91627 1459 ft 159 kts 359°
2026-05-07 22:43 18.46201 -68.92377 998 ft 124 kts 250°
2026-05-07 22:44 18.45524 -68.92541 493 ft 121 kts 138°
2026-05-07 22:44 18.45324 -68.91765 240 ft 98 kts 101°
2026-05-07 22:44 18.45223 -68.91197 236 ft 61 kts 102°
2026-05-07 22:44 18.45152 -68.90884 233 ft 29 kts 104°
2026-05-07 22:45 18.45119 -68.90763 232 ft 6 kts 107°
2026-05-07 22:45 18.45118 -68.90759 232 ft 0 kts 107°